Wind_Speed
12 7 19 27 20 9 15 9 10 15 2 3 8 9 18 17 12 19 28 33 37 28 25 23 23 30 35 30 34 30 21 15 11 9 8 7 8 10 9 10 12 10 14 13
6 27 20 12 18 19 9 14 21 16 6 4 11 13 17 15 14 22 25 32 33 25 22 20 21 24 28 35 34 26 17 13 10 8 6 6 9 10 9 11 9 12 10 5
26 18 13 18 15 15 19 20 18 17 5 5 6 10 16 13 11 21 26 25 25 26 22 19 17 22 30 36 31 21 15 11 9 7 5 6 10 11 8 5 7 7 3 1
19 22 18 17 24 19 22 17 14 14 3 5 4 6 12 12 11 7 18 20 18 19 20 15 18 24 34 32 24 17 13 9 8 6 3 7 10 6 3 5 4 4 2 3
12 18 28 23 21 19 12 10 12 9 5 1 3 4 7 5 9 11 10 24 18 14 11 15 20 30 33 27 20 15 11 8 7 4 3 7 5 4 6 5 5 4 2 4
9 11 20 23 13 19 6 6 4 2 3 4 10 7 6 5 9 8 6 8 11 10 11 16 23 34 31 24 18 14 10 8 6 3 3 4 4 5 7 7 5 5 3 6
5 10 2 8 8 8 10 9 1 3 1 5 7 8 15 9 9 12 12 15 8 10 19 24 36 37 31 24 19 14 8 7 6 3 2 2 4 6 7 7 6 3 1 3
8 4 12 8 9 10 17 12 7 7 4 4 7 8 7 18 24 23 14 15 12 18 22 28 38 36 29 23 19 12 8 8 8 3 1 1 5 6 8 7 5 3 3 3
9 10 5 19 9 17 6 15 9 4 2 1 4 5 7 7 8 7 9 11 20 22 25 32 36 32 27 22 17 11 11 10 8 3 1 2 4 6 7 6 4 4 4 2
5 2 12 15 12 17 14 11 7 4 7 5 4 3 5 7 9 6 6 12 19 21 25 30 36 31 25 19 16 12 11 9 7 4 2 2 5 6 6 4 5 4 4 4
3 1 4 11 18 14 5 9 3 6 5 5 1 6 7 8 7 9 8 15 22 26 28 32 35 29 23 19 17 13 13 11 8 5 3 2 5 7 6 4 6 7 5 6
4 2 5 15 7 18 20 9 9 9 7 3 3 6 4 7 7 8 10 21 24 25 28 33 34 29 24 21 19 15 13 13 8 6 5 3 5 6 5 5 5 6 7 8
9 4 2 4 3 4 22 13 12 5 5 15 4 5 2 3 6 7 9 22 24 23 27 32 33 30 26 23 21 16 16 14 10 7 6 5 6 8 9 9 7 7 7 8
10 4 4 6 2 5 17 19 17 7 5 7 20 5 5 7 7 6 11 20 25 25 29 32 33 31 27 24 23 19 17 15 12 9 8 7 7 8 10 11 10 7 7 8
6 4 3 10 13 9 1 18 20 20 13 6 5 15 6 10 11 9 18 22 24 25 29 34 34 33 29 27 25 21 17 17 15 10 9 9 7 8 7 9 11 11 9 9
6 4 6 5 12 9 10 7 20 24 20 13 6 9 8 8 4 10 23 26 27 30 33 34 34 34 32 29 27 24 19 19 17 12 11 10 10 9 8 8 9 8 9 9
2 4 5 4 10 8 8 21 11 10 15 15 15 15 5 4 7 11 22 31 34 34 34 35 38 36 34 30 27 27 21 20 19 16 13 11 12 11 9 8 8 8 7 9
6 3 2 4 4 5 7 8 13 11 8 17 12 7 10 9 23 30 32 36 36 35 34 35 36 35 33 30 28 26 23 21 21 20 16 12 15 14 11 10 9 8 8 10
9 4 3 2 2 5 1 6 5 4 11 6 8 13 7 21 8 10 31 37 37 37 35 34 33 32 33 31 29 28 26 23 22 23 19 15 17 16 13 11 9 8 8 10
8 10 4 2 2 6 2 17 15 8 6 11 13 10 9 10 7 7 34 40 37 36 36 35 33 33 32 32 31 31 30 28 24 24 22 18 16 17 15 13 11 10 9 10
4 4 8 6 3 4 11 19 16 7 5 20 19 17 19 10 15 37 33 39 37 35 36 35 33 33 32 33 33 33 32 31 24 21 23 20 17 18 16 15 13 11 9 10
3 2 3 3 4 4 17 8 7 7 17 20 22 23 23 26 36 35 35 41 40 38 35 35 34 34 33 33 35 35 34 27 26 23 24 22 19 19 20 17 15 13 10 9
3 4 2 3 2 4 11 4 6 16 19 22 28 30 28 28 30 34 36 38 41 39 39 38 37 35 34 35 36 36 33 30 28 26 25 23 21 18 21 20 19 17 14 11
1 4 3 2 6 14 27 15 18 25 27 32 31 32 25 25 28 35 35 40 37 39 41 41 37 38 35 35 37 35 33 30 30 29 28 26 24 21 22 21 20 20 18 15
1 4 2 4 5 19 5 25 28 38 37 40 42 35 27 18 22 33 35 36 36 38 41 42 41 40 38 35 36 37 35 33 31 31 30 29 28 25 21 22 21 21 19 16
1 2 1 1 4 10 18 25 33 30 36 40 40 40 31 20 10 23 33 36 36 38 39 41 41 40 39 35 34 36 37 35 32 33 33 32 31 29 26 22 20 19 18 17
Wind_Direction
176 194 214 206 208 198 225 225 238 253 197 232 251 271 275 280 263 263 274 285 288 284 292 272 265 253 241 221 202 194 198 207 214 223 236 267 297 302 297 298 288 297 308 296
161 219 215 187 202 209 199 228 245 275 230 226 271 273 283 286 268 266 274 283 291 292 289 266 246 239 224 203 190 187 194 205 207 212 244 289 310 315 306 302 288 309 306 285
201 221 189 196 200 197 216 217 233 245 358 257 300 289 286 284 262 275 275 282 297 286 274 253 228 209 198 185 178 182 194 201 200 215 256 313 321 320 314 301 312 321 312 159
230 227 192 195 209 190 219 209 240 251 162 244 113 290 292 302 288 247 287 302 297 292 271 241 209 192 182 176 174 180 190 190 194 213 269 322 330 345 347 328 332 340 293 225
211 191 205 205 202 190 231 185 208 226 212 306 248 273 271 309 290 285 284 294 293 275 255 208 190 177 171 171 173 178 181 184 190 205 305 338 8 29 359 334 325 310 283 234
204 207 200 211 201 200 178 94 71 73 130 252 238 198 251 217 227 268 271 291 296 241 198 182 171 168 167 170 174 176 174 180 181 187 339 8 37 17 3 344 332 312 272 216
172 224 209 155 146 166 165 125 286 310 242 222 203 194 245 261 238 232 253 265 249 196 183 169 167 170 170 173 175 169 172 175 172 170 2 29 16 7 358 347 337 2 163 185
190 189 192 178 185 168 182 172 161 189 203 244 193 210 245 219 233 240 249 265 214 183 185 172 175 172 173 175 173 167 173 163 171 150 41 36 2 356 358 0 10 63 106 170
192 228 168 175 174 164 190 210 162 130 227 132 227 265 299 223 218 230 228 197 193 181 181 179 178 176 175 176 172 169 165 160 165 156 132 350 9 11 11 23 51 93 81 114
268 232 214 198 176 196 185 138 171 205 195 227 287 251 219 200 215 196 203 200 186 177 183 182 180 178 177 175 168 167 164 151 161 161 128 61 32 21 18 52 69 109 84 116
308 171 271 148 202 173 148 178 141 160 152 171 180 259 216 200 199 211 220 196 181 181 183 182 181 179 176 173 174 174 172 171 170 167 150 92 58 41 33 93 84 96 103 115
302 309 249 207 171 194 199 180 165 195 192 173 168 262 251 226 215 203 200 184 184 189 184 182 181 178 179 179 180 184 179 184 175 173 170 123 85 46 55 107 104 95 97 114
340 305 170 349 168 208 201 199 189 86 106 207 161 247 334 264 221 234 190 181 185 185 183 185 183 182 184 185 188 188 188 183 182 179 175 149 115 76 80 101 103 97 99 110
320 269 256 211 245 122 200 201 190 148 156 177 221 241 252 283 242 204 182 188 185 186 186 186 185 186 188 192 194 193 188 183 187 177 168 163 141 117 90 94 99 87 93 117
324 279 291 280 272 297 39 204 208 212 212 174 207 207 217 223 222 209 192 179 183 187 191 190 189 190 192 196 197 196 188 184 190 179 171 166 160 149 123 106 100 80 93 112
326 282 337 299 281 279 272 256 216 210 217 232 227 246 212 255 137 168 176 180 187 196 198 194 195 194 196 197 198 196 190 186 192 186 174 174 168 163 148 121 109 96 94 128
164 316 351 292 336 315 259 238 231 231 216 200 209 225 172 208 205 201 186 188 196 202 201 199 199 198 198 197 198 197 190 186 191 194 184 179 171 166 157 134 118 110 95 119
177 138 258 265 326 200 256 190 206 209 225 228 240 177 197 216 233 219 207 195 204 204 207 205 201 202 199 198 199 196 194 191 189 196 192 181 175 172 165 148 129 106 98 114
187 129 265 235 258 283 301 46 9 168 240 196 219 237 246 227 178 241 220 210 211 207 208 209 202 200 198 199 198 196 197 197 194 197 196 187 184 181 174 165 144 120 110 108
204 187 208 294 240 214 54 315 315 269 223 16 348 334 278 145 189 231 216 210 214 213 211 209 203 200 198 199 199 196 199 201 199 198 197 194 190 191 183 169 160 140 124 121
93 126 197 226 283 283 337 323 313 139 297 325 331 314 311 228 205 219 209 206 214 213 215 213 207 200 199 200 199 200 202 204 197 195 198 197 197 194 190 178 170 161 145 145
101 163 179 188 251 284 352 1 60 285 307 317 318 312 297 281 242 225 215 207 213 212 215 214 208 205 201 201 201 204 207 203 198 197 200 199 198 197 195 192 183 182 172 160
188 186 147 250 294 342 341 281 292 334 321 319 325 317 307 287 255 236 219 209 214 215 216 216 207 209 203 204 205 207 208 204 200 199 201 198 197 200 201 200 198 195 192 187
240 159 228 266 13 336 313 316 326 337 330 328 331 327 325 299 246 231 225 206 212 216 213 214 207 209 207 206 208 211 209 203 201 201 201 199 197 198 202 205 206 205 202 198
299 312 246 271 331 324 326 343 332 331 334 341 347 345 334 320 237 228 222 210 211 212 210 214 211 207 210 208 207 208 209 206 203 203 202 201 199 199 199 205 210 211 213 211
213 286 328 308 309 278 285 315 330 330 331 339 342 347 354 354 279 231 222 225 216 211 207 211 213 211 208 211 209 208 209 207 205 204 204 203 202 201 202 200 203 212 218 221
Height
1453 1464 1450 1440 1448 1454 1459 1469 1470 1454 1456 1462 1465 1459 1446 1441 1441 1437 1432 1429 1426 1424 1422 1423 1425 1430 1434 1442 1447 1453 1460 1463 1465 1467 1467 1467 1465 1464 1462 1460 1458 1457 1455 1453
1453 1436 1435 1442 1448 1451 1456 1463 1461 1453 1457 1461 1461 1455 1441 1436 1432 1429 1426 1421 1417 1417 1417 1420 1420 1425 1431 1436 1443 1451 1458 1460 1462 1464 1465 1464 1463 1461 1459 1457 1455 1454 1452 1450
1425 1413 1433 1440 1442 1451 1452 1453 1453 1455 1458 1456 1456 1452 1440 1426 1424 1422 1419 1416 1412 1411 1413 1414 1417 1421 1429 1436 1442 1451 1455 1459 1460 1462 1462 1461 1460 1458 1456 1454 1454 1452 1451 1450
1425 1421 1423 1429 1431 1438 1447 1441 1450 1456 1467 1479 1455 1475 1445 1431 1426 1420 1411 1409 1408 1409 1411 1412 1416 1422 1429 1438 1444 1449 1454 1457 1458 1459 1459 1459 1457 1455 1454 1453 1453 1451 1450 1450
1407 1410 1418 1421 1419 1429 1431 1436 1445 1454 1463 1466 1462 1475 1441 1435 1428 1416 1407 1405 1407 1408 1409 1411 1416 1423 1433 1439 1444 1448 1452 1455 1456 1457 1458 1457 1456 1455 1453 1452 1451 1450 1450 1450
1402 1402 1408 1403 1416 1423 1431 1439 1450 1454 1464 1478 1459 1467 1445 1437 1423 1413 1404 1404 1405 1405 1408 1412 1417 1426 1433 1440 1444 1448 1451 1452 1454 1456 1457 1456 1455 1454 1452 1451 1450 1448 1448 1448
1404 1406 1400 1404 1418 1422 1430 1449 1475 1477 1477 1473 1445 1460 1429 1417 1410 1406 1402 1401 1404 1406 1409 1412 1418 1425 1432 1437 1443 1447 1449 1451 1453 1455 1455 1455 1454 1453 1451 1450 1448 1447 1447 1447
1407 1417 1400 1395 1404 1420 1425 1435 1456 1470 1471 1453 1434 1445 1427 1402 1397 1397 1399 1400 1402 1404 1411 1413 1419 1424 1430 1436 1441 1445 1448 1450 1452 1454 1454 1454 1453 1452 1451 1449 1448 1447 1447 1447
1401 1399 1385 1386 1394 1403 1423 1427 1428 1441 1441 1452 1432 1419 1405 1397 1396 1394 1395 1397 1399 1402 1409 1413 1420 1425 1430 1436 1440 1444 1447 1449 1452 1453 1453 1454 1453 1452 1451 1450 1448 1448 1448 1448
1390 1398 1380 1385 1390 1394 1397 1409 1435 1440 1450 1452 1433 1421 1413 1397 1390 1391 1394 1395 1398 1403 1409 1414 1420 1426 1431 1436 1440 1443 1447 1449 1451 1453 1453 1453 1453 1452 1451 1450 1449 1448 1449 1449
1394 1392 1384 1381 1382 1389 1403 1407 1415 1421 1437 1445 1442 1426 1393 1387 1384 1386 1387 1390 1395 1400 1406 1412 1419 1426 1431 1436 1439 1443 1446 1449 1451 1452 1453 1453 1453 1452 1451 1451 1450 1450 1450 1450
1406 1401 1394 1381 1374 1375 1381 1392 1399 1407 1428 1426 1428 1421 1381 1381 1379 1381 1383 1387 1395 1400 1406 1412 1419 1424 1429 1434 1438 1442 1445 1448 1450 1452 1452 1454 1454 1453 1452 1451 1451 1451 1451 1451
1412 1406 1399 1389 1379 1375 1376 1380 1387 1401 1411 1414 1432 1419 1380 1379 1379 1380 1385 1387 1394 1400 1407 1412 1418 1422 1428 1433 1437 1441 1444 1447 1449 1451 1452 1454 1455 1455 1453 1453 1453 1453 1453 1454
1416 1411 1405 1388 1375 1375 1382 1380 1383 1397 1417 1412 1397 1397 1383 1381 1380 1380 1383 1388 1392 1399 1405 1410 1416 1421 1426 1431 1436 1439 1442 1446 1448 1450 1451 1453 1455 1456 1456 1455 1454 1455 1455 1456
1417 1416 1402 1392 1381 1380 1372 1373 1377 1382 1388 1400 1392 1391 1384 1380 1376 1374 1380 1386 1392 1397 1403 1406 1412 1418 1424 1429 1434 1438 1441 1444 1447 1449 1451 1453 1455 1457 1458 1457 1457 1457 1457 1457
1419 1415 1406 1393 1375 1378 1380 1375 1371 1372 1379 1384 1384 1386 1374 1370 1374 1378 1376 1383 1388 1393 1398 1403 1409 1415 1420 1426 1431 1435 1439 1443 1446 1449 1451 1453 1455 1457 1459 1459 1459 1459 1459 1459
1418 1417 1413 1405 1390 1385 1382 1363 1371 1372 1371 1376 1384 1369 1373 1373 1373 1374 1374 1376 1381 1387 1393 1398 1403 1409 1416 1422 1428 1433 1437 1441 1445 1448 1450 1452 1454 1457 1459 1461 1461 1461 1462 1461
1410 1416 1413 1407 1394 1391 1358 1348 1357 1368 1365 1366 1366 1365 1366 1366 1365 1365 1369 1369 1376 1383 1389 1394 1401 1407 1414 1420 1426 1432 1436 1440 1443 1446 1449 1452 1454 1457 1460 1462 1463 1464 1464 1464
1403 1413 1411 1406 1396 1372 1350 1363 1366 1362 1363 1364 1366 1363 1362 1360 1363 1364 1364 1367 1368 1375 1382 1387 1395 1403 1411 1417 1423 1430 1434 1438 1441 1444 1447 1451 1453 1456 1459 1462 1464 1466 1466 1467
1400 1404 1409 1403 1396 1377 1378 1368 1365 1365 1368 1369 1372 1368 1363 1361 1371 1360 1356 1362 1366 1373 1379 1385 1392 1400 1407 1413 1420 1426 1431 1435 1438 1442 1446 1450 1452 1456 1458 1461 1464 1466 1468 1469
1397 1403 1405 1404 1403 1381 1377 1363 1355 1363 1381 1371 1372 1369 1365 1358 1350 1345 1350 1356 1361 1368 1374 1382 1389 1395 1402 1410 1416 1422 1427 1430 1436 1441 1445 1448 1451 1455 1458 1461 1464 1467 1469 1470
1394 1395 1402 1402 1399 1382 1375 1366 1377 1387 1379 1373 1368 1364 1359 1351 1345 1343 1346 1350 1356 1364 1370 1377 1384 1391 1398 1405 1411 1417 1421 1428 1434 1439 1443 1447 1450 1453 1457 1461 1464 1467 1469 1471
1398 1397 1396 1399 1386 1382 1381 1381 1381 1380 1376 1370 1364 1357 1353 1345 1340 1341 1340 1345 1351 1357 1364 1370 1379 1385 1393 1400 1405 1411 1417 1425 1431 1436 1440 1444 1448 1452 1455 1459 1462 1466 1469 1471
1395 1395 1395 1395 1384 1382 1379 1378 1379 1375 1370 1364 1358 1351 1344 1338 1333 1334 1338 1340 1345 1351 1358 1364 1373 1380 1386 1393 1399 1407 1414 1421 1427 1432 1437 1442 1446 1449 1453 1457 1461 1464 1467 1470
1399 1397 1393 1392 1387 1382 1376 1377 1376 1369 1364 1357 1350 1346 1340 1332 1327 1330 1334 1336 1340 1346 1352 1358 1365 1373 1380 1386 1394 1401 1408 1416 1422 1428 1434 1438 1443 1447 1450 1454 1458 1461 1465 1469
1399 1399 1396 1392 1392 1391 1383 1379 1375 1370 1364 1357 1350 1340 1334 1329 1325 1327 1329 1334 1336 1341 1347 1353 1360 1368 1376 1382 1389 1395 1402 1410 1416 1423 1429 1434 1438 1443 1447 1451 1455 1459 1463 1467